Location: Aurora Center
(43.5271°N, 98.5894°W)
Time: 09:51:02
(UTC-05:00)

ACS3 Solar Sail - Pass Details

Date: 23 June 2024
Orbit: 992 x 1023 km, 97.4° (Epoch: 12 July)

Event Time Altitude Azimuth Distance (km) Brightness Sun altitude
Exits shadow 22:06:28 - 133° (SE) 2,859 6.5 -7.5°
Reaches altitude 10° 22:06:45 10° 132° (SE) 2,761 6.5 -7.5°
Maximum altitude 22:12:21 37° 68° (ENE) 1,505 5.6 -8.3°
Drops below altitude 10° 22:17:58 10° 3° (N) 2,766 7.8 -9.0°
Sets 22:20:37 0° 356° (N) 3,718 8.7 -9.3°
